When you browse on this site, cookies collect data to enhance your experience and personalize the content and advertising you see.
Visit our Privacy Policy to learn more. By continuing to use the site, you agree to this use of cookies and data.
  • In Lithuania
  • List of Countries
  • For 7 days
  • Water Temperature
  • Satellite Maps
  • Weather Map
  • Weather Widgets
  • user-avatar
    Login

    Hourly Weather Kaszowka

    Today, 16 January, Wednesday

    Time Temperature Precipitation Wind Pressure Humidity
    00:00 +1°C° 0.3 mm 9 mps 739 mmHg 82%
    01:00 +1°C° 0.3 mm 8 mps 739 mmHg 83%
    02:00 +1°C° 0.6 mm 8 mps 739 mmHg 83%
    03:00 +1°C° 0.6 mm 8 mps 739 mmHg 84%
    04:00 +2°C° 0.6 mm 7 mps 739 mmHg 84%
    05:00 +2°C° 0.3 mm 7 mps 739 mmHg 85%
    06:00 +3°C° 0.3 mm 7 mps 740 mmHg 85%
    07:00 +3°C° 0.3 mm 7 mps 740 mmHg 86%
    08:00 +3°C° 0.1 mm 7 mps 740 mmHg 85%
    09:00 +3°C° 0.1 mm 6 mps 741 mmHg 84%
    10:00 +3°C° 0.1 mm 6 mps 741 mmHg 84%
    11:00 +3°C° 0 mm 5 mps 741 mmHg 81%
    12:00 +5°C° 0 mm 5 mps 741 mmHg 79%
    13:00 +5°C° 0 mm 5 mps 741 mmHg 76%
    14:00 +5°C° 0 mm 5 mps 741 mmHg 78%
    15:00 +3°C° 0 mm 5 mps 741 mmHg 80%
    16:00 +2°C° 0 mm 5 mps 741 mmHg 82%
    17:00 +2°C° 0 mm 5 mps 740 mmHg 82%
    18:00 +2°C° 0 mm 5 mps 740 mmHg 83%
    19:00 +1°C° 0 mm 5 mps 740 mmHg 83%
    20:00 +1°C° 0 mm 5 mps 740 mmHg 83%
    21:00 +1°C° 0 mm 5 mps 740 mmHg 82%
    22:00 +1°C° 0 mm 5 mps 739 mmHg 82%
    23:00 +1°C° 0 mm 5 mps 739 mmHg 78%

    Tomorrow, 17 January, Thursday

    Time Temperature Precipitation Wind Pressure Humidity
    00:00 +1°C° 0 mm 5 mps 738 mmHg 74%
    01:00 +1°C° 0 mm 6 mps 738 mmHg 70%
    02:00 +1°C° 0 mm 6 mps 737 mmHg 67%
    03:00 0°C° 0 mm 7 mps 737 mmHg 65%
    04:00 +1°C° 0 mm 8 mps 736 mmHg 63%
    05:00 +1°C° 0 mm 8 mps 736 mmHg 64%
    06:00 +1°C° 0 mm 8 mps 736 mmHg 66%
    07:00 +1°C° 0 mm 8 mps 736 mmHg 68%
    08:00 +1°C° 0 mm 8 mps 737 mmHg 70%
    09:00 +2°C° 0 mm 7 mps 737 mmHg 72%
    10:00 +3°C° 0 mm 7 mps 737 mmHg 74%
    11:00 +3°C° 0 mm 7 mps 737 mmHg 73%
    12:00 +4°C° 0 mm 7 mps 737 mmHg 71%
    13:00 +5°C° 0 mm 6 mps 737 mmHg 70%
    14:00 +4°C° 0 mm 6 mps 736 mmHg 73%
    15:00 +4°C° 0 mm 6 mps 736 mmHg 76%
    16:00 +3°C° 0 mm 6 mps 736 mmHg 78%
    17:00 +3°C° 0 mm 6 mps 736 mmHg 77%
    18:00 +3°C° 0 mm 7 mps 736 mmHg 75%
    19:00 +2°C° 0 mm 8 mps 736 mmHg 73%
    20:00 +1°C° 0.1 mm 8 mps 736 mmHg 73%
    21:00 +1°C° 0.1 mm 8 mps 737 mmHg 73%
    22:00 +2°C° 0.1 mm 7 mps 738 mmHg 73%
    23:00 +1°C° 0.2 mm 6 mps 738 mmHg 73%

    Day after tomorrow, 18 January, Friday

    Time Temperature Precipitation Wind Pressure Humidity
    00:00 0°C° 0.2 mm 5 mps 739 mmHg 73%
    01:00 -1°C° 0.2 mm 4 mps 739 mmHg 73%
    02:00 -1°C° 0 mm 5 mps 740 mmHg 74%
    03:00 -1°C° 0 mm 5 mps 740 mmHg 75%
    04:00 -2°C° 0 mm 5 mps 740 mmHg 76%
    05:00 -2°C° 0 mm 5 mps 741 mmHg 76%
    06:00 -4°C° 0 mm 5 mps 742 mmHg 77%
    07:00 -4°C° 0 mm 5 mps 743 mmHg 77%
    08:00 -4°C° 0 mm 6 mps 744 mmHg 74%
    09:00 -3°C° 0 mm 6 mps 745 mmHg 70%
    10:00 -3°C° 0 mm 7 mps 746 mmHg 67%
    11:00 -2°C° 0 mm 6 mps 746 mmHg 64%
    12:00 -2°C° 0 mm 6 mps 747 mmHg 60%
    13:00 -2°C° 0 mm 6 mps 747 mmHg 57%
    14:00 -2°C° 0 mm 4 mps 747 mmHg 60%
    15:00 -1°C° 0 mm 3 mps 748 mmHg 64%
    16:00 -2°C° 0 mm 2 mps 748 mmHg 67%
    17:00 -2°C° 0 mm 2 mps 748 mmHg 68%
    18:00 -2°C° 0 mm 2 mps 748 mmHg 69%
    19:00 -3°C° 0 mm 2 mps 749 mmHg 70%
    20:00 -3°C° 0 mm 2 mps 749 mmHg 70%
    21:00 -3°C° 0 mm 2 mps 749 mmHg 70%
    22:00 -3°C° 0 mm 2 mps 749 mmHg 70%
    23:00 -3°C° 0 mm 2 mps 749 mmHg 69%

    19 January, Saturday

    Time Temperature Precipitation Wind Pressure Humidity
    00:00 -3°C° 0 mm 2 mps 749 mmHg 68%
    01:00 -3°C° 0 mm 2 mps 749 mmHg 68%
    02:00 -3°C° 0 mm 2 mps 749 mmHg 67%
    03:00 -1°C° 0 mm 1 mps 749 mmHg 66%
    04:00 -1°C° 0 mm 1 mps 748 mmHg 65%
    05:00 -1°C° 0 mm 1 mps 748 mmHg 64%
    06:00 -1°C° 0 mm 1 mps 748 mmHg 62%
    07:00 -2°C° 0 mm 1 mps 748 mmHg 61%
    08:00 -1°C° 0 mm 1 mps 748 mmHg 58%
    09:00 0°C° 0 mm 1 mps 748 mmHg 54%
    10:00 0°C° 0 mm 1 mps 749 mmHg 50%
    11:00 +1°C° 0 mm 1 mps 748 mmHg 47%
    12:00 +1°C° 0 mm 0 mps 748 mmHg 43%
    13:00 +2°C° 0 mm 0 mps 748 mmHg 39%
    14:00 +1°C° 0 mm 0 mps 747 mmHg 43%
    15:00 +1°C° 0 mm 1 mps 747 mmHg 47%
    16:00 0°C° 0 mm 1 mps 747 mmHg 51%
    17:00 0°C° 0 mm 1 mps 747 mmHg 54%
    18:00 -1°C° 0 mm 1 mps 747 mmHg 57%
    19:00 -1°C° 0 mm 1 mps 747 mmHg 59%
    20:00 -1°C° 0 mm 1 mps 747 mmHg 60%
    21:00 -2°C° 0 mm 0 mps 747 mmHg 61%
    22:00 -3°C° 0 mm 0 mps 747 mmHg 62%
    23:00 -3°C° 0 mm 0 mps 747 mmHg 63%

    20 January, Sunday

    Time Temperature Precipitation Wind Pressure Humidity
    00:00 -3°C° 0 mm 0 mps 747 mmHg 63%
    01:00 -3°C° 0 mm 0 mps 747 mmHg 64%
    02:00 -3°C° 0 mm 0 mps 747 mmHg 64%
    03:00 -3°C° 0 mm 0 mps 747 mmHg 65%
    04:00 -3°C° 0 mm 0 mps 747 mmHg 65%
    05:00 -3°C° 0 mm 1 mps 748 mmHg 65%
    06:00 -3°C° 0 mm 1 mps 748 mmHg 65%
    07:00 -3°C° 0 mm 1 mps 748 mmHg 65%
    08:00 -2°C° 0 mm 1 mps 749 mmHg 62%
    09:00 -2°C° 0 mm 1 mps 749 mmHg 59%
    10:00 -1°C° 0 mm 1 mps 750 mmHg 56%
    11:00 -2°C° 0 mm 2 mps 750 mmHg 57%
    12:00 -2°C° 0 mm 2 mps 750 mmHg 59%
    13:00 -1°C° 0 mm 2 mps 750 mmHg 60%
    14:00 -1°C° 0 mm 2 mps 750 mmHg 66%
    15:00 -2°C° 0 mm 2 mps 751 mmHg 73%
    16:00 -3°C° 0 mm 2 mps 751 mmHg 79%
    17:00 -3°C° 0 mm 2 mps 751 mmHg 83%
    18:00 -3°C° 0 mm 2 mps 752 mmHg 86%
    19:00 -4°C° 0 mm 2 mps 753 mmHg 90%
    20:00 -4°C° 0 mm 2 mps 753 mmHg 90%
    21:00 -4°C° 0 mm 2 mps 753 mmHg 89%
    22:00 -4°C° 0 mm 2 mps 754 mmHg 89%
    23:00 -5°C° 0 mm 2 mps 754 mmHg 88%

    21 January, Monday

    Time Temperature Precipitation Wind Pressure Humidity
    00:00 -5°C° 0 mm 2 mps 754 mmHg 86%
    01:00 -5°C° 0 mm 2 mps 755 mmHg 85%
    02:00 -5°C° 0 mm 2 mps 755 mmHg 84%
    03:00 -3°C° 0 mm 1 mps 755 mmHg 84%
    04:00 -3°C° 0 mm 1 mps 755 mmHg 83%
    05:00 -4°C° 0 mm 1 mps 755 mmHg 84%
    06:00 -4°C° 0 mm 1 mps 755 mmHg 84%
    07:00 -5°C° 0 mm 0 mps 756 mmHg 84%
    08:00 -4°C° 0 mm 0 mps 756 mmHg 80%
    09:00 -4°C° 0 mm 0 mps 756 mmHg 76%
    10:00 -3°C° 0 mm 0 mps 757 mmHg 71%
    11:00 -1°C° 0 mm 1 mps 756 mmHg 65%
    12:00 -1°C° 0 mm 1 mps 756 mmHg 59%
    13:00 0°C° 0 mm 1 mps 756 mmHg 53%
    14:00 -3°C° 0 mm 2 mps 756 mmHg 56%
    15:00 -3°C° 0 mm 2 mps 755 mmHg 58%
    16:00 -4°C° 0 mm 2 mps 755 mmHg 61%
    17:00 -4°C° 0 mm 2 mps 755 mmHg 64%
    18:00 -4°C° 0 mm 2 mps 755 mmHg 67%
    19:00 -5°C° 0 mm 2 mps 754 mmHg 70%
    20:00 -5°C° 0 mm 2 mps 754 mmHg 71%
    21:00 -6°C° 0 mm 3 mps 754 mmHg 72%
    22:00 -6°C° 0 mm 3 mps 754 mmHg 72%
    23:00 -6°C° 0 mm 3 mps 753 mmHg 73%
    Show more